"Pseudo-MPEC" for C1HNZ82

Created 2019 Dec 5 14:07:15 UT using Find_Orb

Click here for an explanation of pseudo-MPECs

 
 Astrometry: 
     C1HNZ82  C2019 12 02.51354 11 07 08.34 +29 19 08.7    ~C2Cq 20.4 GVNEOCPG96
     C1HNZ82  C2019 12 02.51867 11 07 09.76 +29 18 47.8    ~C2Cq 20.5 GVNEOCPG96
     C1HNZ82  C2019 12 02.52381 11 07 11.18 +29 18 26.5    ~C2Cq 20.6 GVNEOCPG96
     C1HNZ82  C2019 12 02.52893 11 07 12.58 +29 18 05.1    ~C2Cq 20.4 GVNEOCPG96
     C1HNZ82  C2019 12 02.53782 11 07 15.06 +29 17 28.2    ~C2DM 20.4 GVNEOCPI52
     C1HNZ82  C2019 12 02.53858 11 07 15.22 +29 17 25.2    ~C2DM 20.4 GVNEOCPI52
     C1HNZ82  C2019 12 02.53934 11 07 15.46 +29 17 21.9    ~C2DM 20.5 GVNEOCPI52
     C1HNZ82  C2019 12 02.54011 11 07 15.65 +29 17 19.0    ~C2DM 20.4 GVNEOCPI52
     C1HNZ82  C2019 12 02.54440 11 07 16.85 +29 17 00.9    ~C2DM 20.5 GVNEOCPG96
     C1HNZ82  C2019 12 02.54484 11 07 16.96 +29 16 59.3    ~C2DM 20.4 GVNEOCPG96
     C1HNZ82  C2019 12 02.54524 11 07 17.09 +29 16 57.6    ~C2DM 20.3 GVNEOCPG96
     C1HNZ82  C2019 12 02.54565 11 07 17.19 +29 16 56.0    ~C2DM 20.3 GVNEOCPG96
     C1HNZ82  C2019 12 03.47260 11 11 40.41 +28 11 10.2    ~C3Bb 20.6 GVNEOCPI52
     C1HNZ82  C2019 12 03.47385 11 11 40.76 +28 11 05.1    ~C3Bb 20.3 GVNEOCPI52
     C1HNZ82  C2019 12 03.47510 11 11 41.09 +28 10 59.3    ~C3Bb 20.8 GVNEOCPI52
     C1HNZ82  C2019 12 03.47635 11 11 41.45 +28 10 53.9    ~C3Bb 20.7 GVNEOCPI52
     C1HNZ82  C2019 12 04.21469 11 15 12.18 +27 16 16.3    ~C4AM 20.2 VVNEOCP033
     C1HNZ82  C2019 12 04.21646 11 15 12.68 +27 16 08.2    ~C4AM 20.3 VVNEOCP033
     C1HNZ82  C2019 12 04.21825 11 15 13.19 +27 16 00.2    ~C4AM 20.3 VVNEOCP033
     C1HNZ82 KC2019 12 04a/-/jvtaWC^+H6N2k;srf_'t1N^00ysq.=n]$%Zd(RAstrometryH36
     C1HNZ82 KC2019 12 04'WeLL8D8xLWredacted;L7_1Go0ugs850=:j3$Lf_)+2/wVHu\YHH36
     C1HNZ82 KC2019 12 04t3uhwJ/pcDZZ8JmwYZhjxlk[Km/i^1X/@(Lc,VgyMd3)y+qiGo[9H36
     C1HNZ82 KC2019 12 05*`,m)g,;E;5'ATjMdX7vmtuyEFoS9y9GwgS8fHMmi[8pFJv7jfvCL01
     C1HNZ82 KC2019 12 051nCH]Z;]'8$Z*D(X7qm)Am-=_.aK^*6RNqTeQpH2.l9JNK;yrE@@L01
     C1HNZ82 KC2019 12 05,]%:y*x]tQek+PvUR.X1((6D'.CGNOclick_-j87Buhere2MaW37L01
     C1HNZ82 KC2019 12 05Thjb`H=q+E-OMpLNx!g,E%wh!cobA(SOKC71F.)QTj[`,/_-QE-VL01
     C1HNZ82  C2019 12 05.09862 11 19 28.05 +26 08 18.8    ~C52q 21.1 VVNEOCP033
     C1HNZ82  C2019 12 05.10028 11 19 28.54 +26 08 10.9    ~C52q 20.9 VVNEOCP033
     C1HNZ82  C2019 12 05.10194 11 19 28.99 +26 08 03.1    ~C52q 20.4 VVNEOCP033
     C1HNZ82  C2019 12 05.21512 11 20 01.38 +25 59 10.1    ~C577 20.5 VVNEOCP033
     C1HNZ82  C2019 12 05.21798 11 20 02.19 +25 58 56.8    ~C577 21.0 VVNEOCP033
     C1HNZ82  C2019 12 05.21965 11 20 02.68 +25 58 48.8    ~C577 20.6 VVNEOCP033
     C1HNZ82  C2019 12 05.22130 11 20 03.14 +25 58 40.9    ~C577 20.5 VVNEOCP033
     C1HNZ82 KC2019 12 05BOW`D?[MM0xp!/08G)'yC3bfor\A9'Np$#'G!yNN/LDd6;t(b8ejH21
     C1HNZ82 KC2019 12 05k/#.kxGMq+]yI_H3N1:LOPAJX^DNb-+explanationpx^q%dC0HBH21

Station data:
(033) Karl Schwarzschild Observatory, Tautenburg  (N50.980140 E11.711240)
   Germany. 1.3-m Schmidt.
(G96) Mt. Lemmon Survey  (N32.442754 W110.788720)  US/Arizona.  Observers T.
   A. Pruyne, B. M. Africano, E. J. Christensen, G. A. Farneth, D. C. Fuls,
   A. R. Gibbs, A. D. Grauer, H. Gröller, J. A. Johnson, R. A. Kowalski, S.
   M. Larson, G. J. Leonard, D. Rankin, R. L. Seaman, F. C. Shelly. 1.5-m
   reflector + 10K CCD.
(H21) Astronomical Research Observatory, Westfield  (N39.483057 W87.968270)
   US/Illinois. 0.76-m f/3.0 astrograph + CCD.
(H36) Sandlot Observatory, Scranton  (N38.797693 W95.706400)  US/Kansas.
   Observer G. Hug. 0.56-m reflector + CCD.
(I52) Steward Observatory, Mt. Lemmon Station  (N32.442547 W110.788920)
   US/Arizona.  Observers T. A. Pruyne, B. M. Africano, E. J. Christensen, G.
   A. Farneth, D. C. Fuls, A. R. Gibbs, A. D. Grauer, H. Gröller, J. A.
   Johnson, R. A. Kowalski, S. M. Larson, G. J. Leonard, D. Rankin, R. L.
   Seaman, F. C. Shelly. 1.0-m reflector + CCD.
(L01) Višnjan Observatory, Tičan  (N45.290900 E13.749300)  Croatia.
   Observers K. Korlević, E. Pettarin. Measurer E. Pettarin. 1.0-m f/2.9
   reflector + CCD.

Orbital elements:  C1HNZ82
   Perihelion 2020 Jan 31.594095 +/- 0.946 TT = 14:15:29 (JD 2458880.094095)
Epoch 2019 Dec  5.0 TT = JDT 2458822.5   Earth MOID: 0.0174   Ma: 0.0687
M 338.33342195 +/- 2.3              (J2000 ecliptic)          AutoNEOCP
n   0.37619443 +/- 0.037            Peri.  245.31686 +/- 1.3
a   1.90047052 +/- 0.127            Node   291.89248 +/- 0.44
e   0.6056980 +/- 0.0242            Incl.   30.20517 +/- 0.37
P   2.62/956.93d           H 19.7   G  0.15   U 10.5  
q 0.74935926 +/- 0.00371    Q 3.05158178 +/- 0.277
From 35 observations 2019 Dec. 2-5; mean residual 0".27
Residuals in arcseconds: 
191202 G96  .10-  .19-    191203 I52  .17+  .14+    191205 L01  .28-  .17+    
191202 G96  .00   .14+    191203 I52  .18+  .45+    191205 L01  .00   .59+    
191202 G96  .06+  .12+    191203 I52  .07-  .05+    191205 033  .09-  .14-    
191202 G96  .07-  .08-    191203 I52  .07+  .06+    191205 033  .09+  .26-    
191202 I52  .36+  .12-    191204 033  .01-  .26-    191205 033  .26-  .28-    
191202 I52  .28-  .03+    191204 033  .00   .38-    191205 033  .02+  .26-    
191202 I52  .12+  .12-    191204 033  .07+  .31-    191205 033  .07-  .02-    
191202 I52  .17-  .18+    191204 H36  .56-  .75-    191205 033  .10+  .12-    
191202 G96  .09+  .12-    191204 H36  .34+  .18+    191205 033  .05-  .21-    
191202 G96  .06-  .10+    191204 H36  .05-  .03-    191205 H21  .54+  .20+    
191202 G96  .20+  .07+    191205 L01  .99-  .38-    191205 H21  .52+  .23+    
191202 G96  .03+  .17+    191205 L01  .12-  .57+    

Ephemerides (geocentric):
Date (UTC) HH   RA              Dec         delta   r     elong  mag " sig PA
---- -- -- --  -------------   -----------  ------ ------ -----  --- ---- ---
2019 12 05 14  11 21 48.584   +25 29 58.64  .48226 1.1111  91.9 20.6 .235 163
2019 12 05 15  11 22 00.757   +25 26 37.59  .48182 1.1107  91.8 20.6 .237 166
2019 12 05 16  11 22 12.937   +25 23 16.14  .48138 1.1103  91.8 20.6 .240 168
2019 12 05 17  11 22 25.124   +25 19 54.29  .48095 1.1100  91.8 20.6 .244 170
2019 12 05 18  11 22 37.316   +25 16 32.04  .48051 1.1096  91.8 20.6 .248 173
2019 12 05 19  11 22 49.514   +25 13 09.39  .48008 1.1092  91.7 20.6 .252 175
2019 12 05 20  11 23 01.719   +25 09 46.34  .47964 1.1088  91.7 20.6 .256 178
2019 12 05 21  11 23 13.930   +25 06 22.88  .47921 1.1084  91.7 20.6 .261   0
2019 12 05 22  11 23 26.148   +25 02 59.01  .47878 1.1080  91.7 20.6 .267   2
2019 12 05 23  11 23 38.371   +24 59 34.75  .47834 1.1076  91.6 20.6 .273   4
2019 12 06 00  11 23 50.601   +24 56 10.08  .47791 1.1072  91.6 20.6 .279   7
2019 12 06 01  11 24 02.837   +24 52 45.00  .47748 1.1068  91.6 20.6 .286   9
2019 12 06 02  11 24 15.080   +24 49 19.52  .47705 1.1064  91.6 20.6 .293  11
2019 12 06 03  11 24 27.328   +24 45 53.63  .47662 1.1060  91.5 20.6 .301  13
2019 12 06 04  11 24 39.583   +24 42 27.33  .47619 1.1056  91.5 20.6 .310  15
2019 12 06 05  11 24 51.845   +24 39 00.63  .47576 1.1053  91.5 20.6 .319  17
2019 12 06 06  11 25 04.113   +24 35 33.52  .47533 1.1049  91.5 20.6 .328  19
2019 12 06 07  11 25 16.387   +24 32 06.00  .47491 1.1045  91.4 20.6 .338  21
2019 12 06 08  11 25 28.667   +24 28 38.07  .47448 1.1041  91.4 20.6 .348  23
2019 12 06 09  11 25 40.954   +24 25 09.73  .47405 1.1037  91.4 20.6 .359  25
2019 12 06 10  11 25 53.247   +24 21 40.98  .47363 1.1033  91.4 20.6 .371  27
2019 12 06 11  11 26 05.547   +24 18 11.82  .47320 1.1029  91.3 20.6 .383  29
2019 12 06 12  11 26 17.853   +24 14 42.25  .47278 1.1025  91.3 20.6 .395  30
2019 12 06 13  11 26 30.165   +24 11 12.27  .47235 1.1021  91.3 20.6 .408  32
2019 12 06 14  11 26 42.484   +24 07 41.88  .47193 1.1017  91.2 20.6 .421  33
2019 12 06 15  11 26 54.810   +24 04 11.07  .47151 1.1013  91.2 20.6 .435  35
2019 12 06 16  11 27 07.142   +24 00 39.85  .47109 1.1009  91.2 20.6 .450  36
2019 12 06 17  11 27 19.480   +23 57 08.22  .47067 1.1006  91.2 20.6 .465  38
2019 12 06 18  11 27 31.825   +23 53 36.17  .47024 1.1002  91.1 20.6 .480  39
2019 12 06 19  11 27 44.176   +23 50 03.71  .46982 1.0998  91.1 20.6 .496  40
2019 12 06 20  11 27 56.534   +23 46 30.83  .46941 1.0994  91.1 20.6 .512  42
2019 12 06 21  11 28 08.898   +23 42 57.54  .46899 1.0990  91.1 20.6 .529  43
2019 12 06 22  11 28 21.269   +23 39 23.83  .46857 1.0986  91.0 20.6 .547  44
2019 12 06 23  11 28 33.646   +23 35 49.70  .46815 1.0982  91.0 20.6 .565  45
2019 12 07 00  11 28 46.030   +23 32 15.16  .46773 1.0978  91.0 20.6 .583  46
2019 12 07 01  11 28 58.421   +23 28 40.20  .46732 1.0974  91.0 20.6 .602  47
2019 12 07 02  11 29 10.818   +23 25 04.82  .46690 1.0970  90.9 20.6 .622  49
2019 12 07 03  11 29 23.221   +23 21 29.02  .46649 1.0966  90.9 20.6 .641  50
2019 12 07 04  11 29 35.632   +23 17 52.81  .46607 1.0963  90.9 20.6 .662  50
2019 12 07 05  11 29 48.049   +23 14 16.17  .46566 1.0959  90.8 20.6 .683  51
2019 12 07 06  11 30 00.472   +23 10 39.12  .46525 1.0955  90.8 20.6 .704  52
2019 12 07 07  11 30 12.902   +23 07 01.64  .46484 1.0951  90.8 20.5 .726  53
2019 12 07 08  11 30 25.339   +23 03 23.74  .46442 1.0947  90.8 20.5 .749  54
2019 12 07 09  11 30 37.782   +22 59 45.43  .46401 1.0943  90.7 20.5 .771  55
2019 12 07 10  11 30 50.233   +22 56 06.69  .46360 1.0939  90.7 20.5 .795  56
2019 12 07 11  11 31 02.689   +22 52 27.52  .46319 1.0935  90.7 20.5 .819  56
2019 12 07 12  11 31 15.153   +22 48 47.94  .46278 1.0931  90.6 20.5 .843  57
2019 12 07 13  11 31 27.623   +22 45 07.93  .46238 1.0927  90.6 20.5 .868  58